Location: Newark
(43.0000°N, 1.6781°W)
Time: 16:47:39
(UTC+00:00)

Courier 1B Rocket - Visible Passes

Search period start: 19 April 2021 00:00
Search period end: 29 April 2021 00:00
Orbit: 920 x 1202 km, 28.2° (Epoch: 19 April)

Date Brightness Start Highest point End Pass type
(mag) Time Alt. Az. Time Alt. Az. Time Alt. Az.
19 Apr 6.6 19:56:04 10° SSW 20:00:36 19° SSE 20:03:31 15° SE visible
19 Apr 6.8 21:47:35 10° SW 21:49:54 18° SW 21:49:54 18° SW visible
20 Apr 6.3 20:46:59 10° SW 20:52:16 23° S 20:52:47 23° SSE visible
21 Apr 6.5 19:46:37 10° SW 19:51:28 21° S 19:55:35 13° SE visible
21 Apr 6.6 21:38:41 10° SW 21:41:58 21° SSW 21:41:58 21° SSW visible
22 Apr 6.3 20:37:58 10° SW 20:43:10 23° S 20:44:42 22° SSE visible
22 Apr 7.4 22:31:04 10° SW 22:31:05 10° SW 22:31:05 10° SW visible
23 Apr 6.4 19:37:26 10° SW 19:42:21 22° S 19:47:25 10° SE visible
23 Apr 6.6 21:30:00 10° SW 21:33:47 20° SSW 21:33:47 20° SSW visible
24 Apr 6.4 20:29:08 10° SW 20:34:05 22° S 20:36:27 19° SSE visible
25 Apr 6.4 19:28:27 10° SW 19:33:17 22° S 19:38:22 10° SE visible
25 Apr 6.7 21:21:33 10° SW 21:25:27 17° SSW 21:25:27 17° SSW visible
26 Apr 6.6 20:20:29 10° SW 20:25:00 20° S 20:28:05 15° SSE visible
27 Apr 6.9 21:13:36 10° SW 21:16:40 13° SSW 21:17:05 13° SSW visible
28 Apr 6.8 20:12:08 10° SW 20:15:55 16° SSW 20:19:43 10° SSE visible
